Year,Month,Day,Hour,Minute,Value (Times are PST for insolation in W/m^2)
2008,08,05,00,00,0.00
2008,08,05,00,01,0.00
2008,08,05,00,02,0.00
2008,08,05,00,03,0.00
2008,08,05,00,04,0.00
2008,08,05,00,05,0.00
2008,08,05,00,06,0.00
2008,08,05,00,07,0.00
2008,08,05,00,08,0.00
2008,08,05,00,09,0.00
2008,08,05,00,10,0.00
2008,08,05,00,11,0.00
2008,08,05,00,12,0.00
2008,08,05,00,13,0.00
2008,08,05,00,14,0.00
2008,08,05,00,15,0.00
2008,08,05,00,16,0.00
2008,08,05,00,17,0.00
2008,08,05,00,18,0.00
2008,08,05,00,19,0.00
2008,08,05,00,20,0.00
2008,08,05,00,21,0.00
2008,08,05,00,22,0.00
2008,08,05,00,23,0.00
2008,08,05,00,24,0.00
2008,08,05,00,25,0.00
2008,08,05,00,26,0.00
2008,08,05,00,27,0.00
2008,08,05,00,28,0.00
2008,08,05,00,29,0.00
2008,08,05,00,30,0.00
2008,08,05,00,31,0.00
2008,08,05,00,32,0.00
2008,08,05,00,33,0.00
2008,08,05,00,34,0.00
2008,08,05,00,35,0.00
2008,08,05,00,36,0.00
2008,08,05,00,37,0.00
2008,08,05,00,38,0.00
2008,08,05,00,39,0.00
2008,08,05,00,40,0.00
2008,08,05,00,41,0.00
2008,08,05,00,42,0.00
2008,08,05,00,43,0.00
2008,08,05,00,44,0.00
2008,08,05,00,45,0.00
2008,08,05,00,46,0.00
2008,08,05,00,47,0.00
2008,08,05,00,48,0.00
2008,08,05,00,49,0.00
2008,08,05,00,50,0.00
2008,08,05,00,51,0.00
2008,08,05,00,52,0.00
2008,08,05,00,53,0.00
2008,08,05,00,54,0.00
2008,08,05,00,55,0.00
2008,08,05,00,56,0.00
2008,08,05,00,57,0.00
2008,08,05,00,58,0.00
2008,08,05,00,59,0.00
2008,08,05,01,00,0.00
2008,08,05,01,01,0.00
2008,08,05,01,02,0.00
2008,08,05,01,03,0.00
2008,08,05,01,04,0.00
2008,08,05,01,05,0.00
2008,08,05,01,06,0.00
2008,08,05,01,07,0.00
2008,08,05,01,08,0.00
2008,08,05,01,09,0.00
2008,08,05,01,10,0.00
2008,08,05,01,11,0.00
2008,08,05,01,12,0.00
2008,08,05,01,13,0.00
2008,08,05,01,14,0.00
2008,08,05,01,15,0.00
2008,08,05,01,16,0.00
2008,08,05,01,17,0.00
2008,08,05,01,18,0.00
2008,08,05,01,19,0.00
2008,08,05,01,20,0.00
2008,08,05,01,21,0.00
2008,08,05,01,22,0.00
2008,08,05,01,23,0.00
2008,08,05,01,24,0.00
2008,08,05,01,25,0.00
2008,08,05,01,26,0.00
2008,08,05,01,27,0.00
2008,08,05,01,28,0.00
2008,08,05,01,29,0.00
2008,08,05,01,30,0.00
2008,08,05,01,31,0.00
2008,08,05,01,32,0.00
2008,08,05,01,33,0.00
2008,08,05,01,34,0.00
2008,08,05,01,35,0.00
2008,08,05,01,36,0.00
2008,08,05,01,37,0.00
2008,08,05,01,38,0.00
2008,08,05,01,39,0.00
2008,08,05,01,40,0.00
2008,08,05,01,41,0.00
2008,08,05,01,42,0.00
2008,08,05,01,43,0.00
2008,08,05,01,44,0.00
2008,08,05,01,45,0.00
2008,08,05,01,46,0.00
2008,08,05,01,47,0.00
2008,08,05,01,48,0.00
2008,08,05,01,49,0.00
2008,08,05,01,50,0.00
2008,08,05,01,51,0.00
2008,08,05,01,52,0.00
2008,08,05,01,53,0.00
2008,08,05,01,54,0.00
2008,08,05,01,55,0.00
2008,08,05,01,56,0.00
2008,08,05,01,57,0.00
2008,08,05,01,58,0.00
2008,08,05,01,59,0.00
2008,08,05,02,00,0.00
2008,08,05,02,01,0.00
2008,08,05,02,02,0.00
2008,08,05,02,03,0.00
2008,08,05,02,04,0.00
2008,08,05,02,05,0.00
2008,08,05,02,06,0.00
2008,08,05,02,07,0.00
2008,08,05,02,08,0.00
2008,08,05,02,09,0.00
2008,08,05,02,10,0.00
2008,08,05,02,11,0.00
2008,08,05,02,12,0.00
2008,08,05,02,13,0.00
2008,08,05,02,14,0.00
2008,08,05,02,15,0.00
2008,08,05,02,16,0.00
2008,08,05,02,17,0.00
2008,08,05,02,18,0.00
2008,08,05,02,19,0.00
2008,08,05,02,20,0.00
2008,08,05,02,21,0.00
2008,08,05,02,22,0.00
2008,08,05,02,23,0.00
2008,08,05,02,24,0.00
2008,08,05,02,25,0.00
2008,08,05,02,26,0.00
2008,08,05,02,27,0.00
2008,08,05,02,28,0.00
2008,08,05,02,29,0.00
2008,08,05,02,30,0.00
2008,08,05,02,31,0.00
2008,08,05,02,32,0.00
2008,08,05,02,33,0.00
2008,08,05,02,34,0.00
2008,08,05,02,35,0.00
2008,08,05,02,36,0.00
2008,08,05,02,37,0.00
2008,08,05,02,38,0.00
2008,08,05,02,39,0.00
2008,08,05,02,40,0.00
2008,08,05,02,41,0.00
2008,08,05,02,42,0.00
2008,08,05,02,43,0.00
2008,08,05,02,44,0.00
2008,08,05,02,45,0.00
2008,08,05,02,46,0.00
2008,08,05,02,47,0.00
2008,08,05,02,48,0.00
2008,08,05,02,49,0.00
2008,08,05,02,50,0.00
2008,08,05,02,51,0.00
2008,08,05,02,52,0.00
2008,08,05,02,53,0.00
2008,08,05,02,54,0.00
2008,08,05,02,55,0.00
2008,08,05,02,56,0.00
2008,08,05,02,57,0.00
2008,08,05,02,58,0.00
2008,08,05,02,59,0.00
2008,08,05,03,00,0.00
2008,08,05,03,01,0.00
2008,08,05,03,02,0.00
2008,08,05,03,03,0.00
2008,08,05,03,04,0.00
2008,08,05,03,05,0.00
2008,08,05,03,06,0.00
2008,08,05,03,07,0.00
2008,08,05,03,08,0.00
2008,08,05,03,09,0.00
2008,08,05,03,10,0.00
2008,08,05,03,11,0.00
2008,08,05,03,12,0.00
2008,08,05,03,13,0.00
2008,08,05,03,14,0.00
2008,08,05,03,15,0.00
2008,08,05,03,16,0.00
2008,08,05,03,17,0.00
2008,08,05,03,18,0.00
2008,08,05,03,19,0.00
2008,08,05,03,20,0.00
2008,08,05,03,21,0.00
2008,08,05,03,22,0.00
2008,08,05,03,23,0.00
2008,08,05,03,24,0.00
2008,08,05,03,25,0.00
2008,08,05,03,26,0.00
2008,08,05,03,27,0.00
2008,08,05,03,28,0.00
2008,08,05,03,29,0.00
2008,08,05,03,30,0.00
2008,08,05,03,31,0.00
2008,08,05,03,32,0.00
2008,08,05,03,33,0.00
2008,08,05,03,34,0.00
2008,08,05,03,35,0.00
2008,08,05,03,36,0.00
2008,08,05,03,37,0.00
2008,08,05,03,38,0.00
2008,08,05,03,39,0.00
2008,08,05,03,40,0.00
2008,08,05,03,41,0.00
2008,08,05,03,42,0.00
2008,08,05,03,43,0.00
2008,08,05,03,44,0.00
2008,08,05,03,45,0.00
2008,08,05,03,46,0.00
2008,08,05,03,47,0.00
2008,08,05,03,48,0.00
2008,08,05,03,49,0.00
2008,08,05,03,50,0.00
2008,08,05,03,51,0.00
2008,08,05,03,52,0.00
2008,08,05,03,53,0.00
2008,08,05,03,54,0.00
2008,08,05,03,55,0.00
2008,08,05,03,56,0.00
2008,08,05,03,57,0.00
2008,08,05,03,58,0.00
2008,08,05,03,59,0.00
2008,08,05,04,00,0.00
2008,08,05,04,01,0.00
2008,08,05,04,02,0.00
2008,08,05,04,03,0.00
2008,08,05,04,04,0.00
2008,08,05,04,05,0.00
2008,08,05,04,06,0.00
2008,08,05,04,07,0.00
2008,08,05,04,08,0.00
2008,08,05,04,09,0.00
2008,08,05,04,10,0.00
2008,08,05,04,11,0.00
2008,08,05,04,12,0.00
2008,08,05,04,13,0.00
2008,08,05,04,14,0.00
2008,08,05,04,15,0.00
2008,08,05,04,16,0.00
2008,08,05,04,17,0.00
2008,08,05,04,18,0.00
2008,08,05,04,19,0.00
2008,08,05,04,20,0.00
2008,08,05,04,21,0.00
2008,08,05,04,22,0.00
2008,08,05,04,23,0.00
2008,08,05,04,24,0.00
2008,08,05,04,25,0.00
2008,08,05,04,26,0.00
2008,08,05,04,27,0.00
2008,08,05,04,28,0.00
2008,08,05,04,29,0.00
2008,08,05,04,30,0.00
2008,08,05,04,31,0.00
2008,08,05,04,32,0.00
2008,08,05,04,33,0.00
2008,08,05,04,34,0.00
2008,08,05,04,35,0.00
2008,08,05,04,36,0.00
2008,08,05,04,37,0.00
2008,08,05,04,38,0.00
2008,08,05,04,39,0.00
2008,08,05,04,40,0.00
2008,08,05,04,41,0.00
2008,08,05,04,42,0.00
2008,08,05,04,43,0.00
2008,08,05,04,44,0.00
2008,08,05,04,45,0.00
2008,08,05,04,46,0.00
2008,08,05,04,47,0.00
2008,08,05,04,48,0.00
2008,08,05,04,49,0.00
2008,08,05,04,50,0.00
2008,08,05,04,51,0.00
2008,08,05,04,52,0.00
2008,08,05,04,53,0.00
2008,08,05,04,54,0.00
2008,08,05,04,55,0.00
2008,08,05,04,56,0.00
2008,08,05,04,57,0.00
2008,08,05,04,58,0.00
2008,08,05,04,59,0.00
2008,08,05,05,00,0.00
2008,08,05,05,01,0.00
2008,08,05,05,02,0.00
2008,08,05,05,03,0.00
2008,08,05,05,04,0.00
2008,08,05,05,05,0.00
2008,08,05,05,06,0.00
2008,08,05,05,07,0.00
2008,08,05,05,08,0.00
2008,08,05,05,09,0.00
2008,08,05,05,10,0.00
2008,08,05,05,11,0.00
2008,08,05,05,12,0.00
2008,08,05,05,13,0.00
2008,08,05,05,14,0.00
2008,08,05,05,15,0.00
2008,08,05,05,16,0.00
2008,08,05,05,17,0.00
2008,08,05,05,18,0.00
2008,08,05,05,19,0.00
2008,08,05,05,20,0.00
2008,08,05,05,21,0.00
2008,08,05,05,22,0.00
2008,08,05,05,23,0.00
2008,08,05,05,24,0.00
2008,08,05,05,25,0.00
2008,08,05,05,26,0.00
2008,08,05,05,27,0.00
2008,08,05,05,28,0.00
2008,08,05,05,29,0.00
2008,08,05,05,30,0.00
2008,08,05,05,31,0.00
2008,08,05,05,32,0.00
2008,08,05,05,33,0.00
2008,08,05,05,34,0.00
2008,08,05,05,35,0.00
2008,08,05,05,36,0.00
2008,08,05,05,37,0.00
2008,08,05,05,38,0.00
2008,08,05,05,39,0.00
2008,08,05,05,40,0.00
2008,08,05,05,41,0.00
2008,08,05,05,42,0.00
2008,08,05,05,43,0.00
2008,08,05,05,44,0.00
2008,08,05,05,45,0.00
2008,08,05,05,46,0.00
2008,08,05,05,47,0.00
2008,08,05,05,48,0.00
2008,08,05,05,49,0.00
2008,08,05,05,50,0.00
2008,08,05,05,51,0.00
2008,08,05,05,52,0.00
2008,08,05,05,53,0.00
2008,08,05,05,54,0.00
2008,08,05,05,55,0.00
2008,08,05,05,56,1.10
2008,08,05,05,57,5.00
2008,08,05,05,58,5.00
2008,08,05,05,59,5.00
2008,08,05,06,00,5.00
2008,08,05,06,01,5.00
2008,08,05,06,02,5.30
2008,08,05,06,03,7.00
2008,08,05,06,04,7.00
2008,08,05,06,05,7.00
2008,08,05,06,06,7.00
2008,08,05,06,07,7.40
2008,08,05,06,08,9.00
2008,08,05,06,09,9.00
2008,08,05,06,10,9.00
2008,08,05,06,11,9.40
2008,08,05,06,12,11.00
2008,08,05,06,13,11.00
2008,08,05,06,14,11.00
2008,08,05,06,15,11.00
2008,08,05,06,16,11.20
2008,08,05,06,17,12.00
2008,08,05,06,18,12.00
2008,08,05,06,19,12.40
2008,08,05,06,20,14.40
2008,08,05,06,21,17.10
2008,08,05,06,22,22.50
2008,08,05,06,23,28.80
2008,08,05,06,24,32.20
2008,08,05,06,25,33.40
2008,08,05,06,26,35.40
2008,08,05,06,27,37.40
2008,08,05,06,28,39.20
2008,08,05,06,29,40.40
2008,08,05,06,30,42.40
2008,08,05,06,31,44.40
2008,08,05,06,32,46.50
2008,08,05,06,33,49.40
2008,08,05,06,34,51.40
2008,08,05,06,35,53.20
2008,08,05,06,36,54.40
2008,08,05,06,37,56.00
2008,08,05,06,38,57.30
2008,08,05,06,39,62.20
2008,08,05,06,40,63.40
2008,08,05,06,41,65.40
2008,08,05,06,42,67.40
2008,08,05,06,43,69.50
2008,08,05,06,44,72.40
2008,08,05,06,45,74.50
2008,08,05,06,46,77.40
2008,08,05,06,47,79.30
2008,08,05,06,48,81.40
2008,08,05,06,49,83.00
2008,08,05,06,50,84.10
2008,08,05,06,51,88.40
2008,08,05,06,52,90.20
2008,08,05,06,53,91.40
2008,08,05,06,54,93.30
2008,08,05,06,55,95.40
2008,08,05,06,56,97.60
2008,08,05,06,57,100.40
2008,08,05,06,58,102.30
2008,08,05,06,59,104.60
2008,08,05,07,00,107.30
2008,08,05,07,01,109.40
2008,08,05,07,02,111.40
2008,08,05,07,03,113.70
2008,08,05,07,04,116.40
2008,08,05,07,05,118.30
2008,08,05,07,06,120.60
2008,08,05,07,07,123.40
2008,08,05,07,08,125.00
2008,08,05,07,09,126.10
2008,08,05,07,10,130.40
2008,08,05,07,11,132.60
2008,08,05,07,12,135.40
2008,08,05,07,13,137.40
2008,08,05,07,14,139.40
2008,08,05,07,15,141.20
2008,08,05,07,16,142.40
2008,08,05,07,17,144.40
2008,08,05,07,18,146.40
2008,08,05,07,19,148.60
2008,08,05,07,20,151.40
2008,08,05,07,21,153.40
2008,08,05,07,22,155.20
2008,08,05,07,23,156.40
2008,08,05,07,24,158.80
2008,08,05,07,25,162.20
2008,08,05,07,26,163.40
2008,08,05,07,27,165.90
2008,08,05,07,28,169.40
2008,08,05,07,29,171.50
2008,08,05,07,30,174.40
2008,08,05,07,31,176.60
2008,08,05,07,32,179.40
2008,08,05,07,33,181.40
2008,08,05,07,34,183.60
2008,08,05,07,35,186.80
2008,08,05,07,36,190.40
2008,08,05,07,37,192.60
2008,08,05,07,38,195.40
2008,08,05,07,39,197.60
2008,08,05,07,40,200.40
2008,08,05,07,41,202.40
2008,08,05,07,42,204.60
2008,08,05,07,43,207.80
2008,08,05,07,44,211.60
2008,08,05,07,45,214.40
2008,08,05,07,46,216.80
2008,08,05,07,47,220.20
2008,08,05,07,48,221.80
2008,08,05,07,49,225.40
2008,08,05,07,50,227.60
2008,08,05,07,51,230.80
2008,08,05,07,52,234.40
2008,08,05,07,53,236.60
2008,08,05,07,54,239.40
2008,08,05,07,55,241.60
2008,08,05,07,56,244.30
2008,08,05,07,57,246.80
2008,08,05,07,58,250.60
2008,08,05,07,59,253.00
2008,08,05,08,00,254.10
2008,08,05,08,01,258.30
2008,08,05,08,02,260.80
2008,08,05,08,03,264.20
2008,08,05,08,04,265.80
2008,08,05,08,05,269.40
2008,08,05,08,06,271.70
2008,08,05,08,07,274.40
2008,08,05,08,08,276.60
2008,08,05,08,09,279.80
2008,08,05,08,10,283.40
2008,08,05,08,11,285.40
2008,08,05,08,12,287.60
2008,08,05,08,13,290.40
2008,08,05,08,14,292.60
2008,08,05,08,15,295.80
2008,08,05,08,16,299.40
2008,08,05,08,17,301.60
2008,08,05,08,18,304.80
2008,08,05,08,19,308.20
2008,08,05,08,20,309.80
2008,08,05,08,21,313.50
2008,08,05,08,22,316.40
2008,08,05,08,23,318.70
2008,08,05,08,24,322.20
2008,08,05,08,25,323.80
2008,08,05,08,26,327.70
2008,08,05,08,27,330.40
2008,08,05,08,28,332.80
2008,08,05,08,29,336.60
2008,08,05,08,30,339.30
2008,08,05,08,31,341.40
2008,08,05,08,32,343.60
2008,08,05,08,33,346.80
2008,08,05,08,34,350.40
2008,08,05,08,35,352.70
2008,08,05,08,36,355.80
2008,08,05,08,37,359.20
2008,08,05,08,38,360.80
2008,08,05,08,39,364.30
2008,08,05,08,40,366.60
2008,08,05,08,41,369.80
2008,08,05,08,42,373.20
2008,08,05,08,43,374.40
2008,08,05,08,44,376.80
2008,08,05,08,45,380.60
2008,08,05,08,46,383.80
2008,08,05,08,47,387.20
2008,08,05,08,48,388.90
2008,08,05,08,49,392.00
2008,08,05,08,50,392.00
2008,08,05,08,51,393.10
2008,08,05,08,52,397.80
2008,08,05,08,53,401.60
2008,08,05,08,54,404.80
2008,08,05,08,55,408.40
2008,08,05,08,56,410.20
2008,08,05,08,57,411.90
2008,08,05,08,58,415.60
2008,08,05,08,59,418.40
2008,08,05,09,00,420.40
2008,08,05,09,01,422.40
2008,08,05,09,02,424.70
2008,08,05,09,03,427.80
2008,08,05,09,04,431.60
2008,08,05,09,05,434.40
2008,08,05,09,06,436.50
2008,08,05,09,07,439.40
2008,08,05,09,08,441.40
2008,08,05,09,09,444.10
2008,08,05,09,10,448.40
2008,08,05,09,11,450.80
2008,08,05,09,12,454.20
2008,08,05,09,13,455.90
2008,08,05,09,14,459.40
2008,08,05,09,15,461.20
2008,08,05,09,16,462.40
2008,08,05,09,17,464.00
2008,08,05,09,18,465.50
2008,08,05,09,19,471.40
2008,08,05,09,20,473.60
2008,08,05,09,21,476.30
2008,08,05,09,22,478.80
2008,08,05,09,23,482.20
2008,08,05,09,24,483.80
2008,08,05,09,25,487.40
2008,08,05,09,26,489.70
2008,08,05,09,27,492.00
2008,08,05,09,28,493.10
2008,08,05,09,29,497.40
2008,08,05,09,30,499.90
2008,08,05,09,31,503.20
2008,08,05,09,32,504.80
2008,08,05,09,33,508.40
2008,08,05,09,34,510.40
2008,08,05,09,35,512.20
2008,08,05,09,36,513.40
2008,08,05,09,37,515.70
2008,08,05,09,38,519.60
2008,08,05,09,39,522.40
2008,08,05,09,40,524.40
2008,08,05,09,41,526.20
2008,08,05,09,42,527.80
2008,08,05,09,43,531.50
2008,08,05,09,44,534.40
2008,08,05,09,45,536.80
2008,08,05,09,46,540.00
2008,08,05,09,47,540.60
2008,08,05,09,48,543.90
2008,08,05,09,49,547.00
2008,08,05,09,50,547.60
2008,08,05,09,51,550.00
2008,08,05,09,52,551.10
2008,08,05,09,53,555.80
2008,08,05,09,54,559.40
2008,08,05,09,55,561.70
2008,08,05,09,56,564.40
2008,08,05,09,57,566.40
2008,08,05,09,58,568.40
2008,08,05,09,59,570.60
2008,08,05,10,00,573.40
2008,08,05,10,01,575.40
2008,08,05,10,02,577.70
2008,08,05,10,03,580.40
2008,08,05,10,04,582.40
2008,08,05,10,05,584.70
2008,08,05,10,06,587.40
2008,08,05,10,07,589.40
2008,08,05,10,08,591.00
2008,08,05,10,09,592.10
2008,08,05,10,10,596.40
2008,08,05,10,11,598.20
2008,08,05,10,12,599.80
2008,08,05,10,13,603.40
2008,08,05,10,14,605.20
2008,08,05,10,15,606.80
2008,08,05,10,16,610.40
2008,08,05,10,17,612.20
2008,08,05,10,18,613.00
2008,08,05,10,19,614.20
2008,08,05,10,20,619.40
2008,08,05,10,21,621.20
2008,08,05,10,22,622.90
2008,08,05,10,23,626.40
2008,08,05,10,24,628.20
2008,08,05,10,25,629.40
2008,08,05,10,26,631.80
2008,08,05,10,27,635.20
2008,08,05,10,28,636.40
2008,08,05,10,29,638.40
2008,08,05,10,30,640.70
2008,08,05,10,31,643.00
2008,08,05,10,32,643.00
2008,08,05,10,33,644.00
2008,08,05,10,34,649.00
2008,08,05,10,35,649.60
2008,08,05,10,36,652.80
2008,08,05,10,37,656.30
2008,08,05,10,38,657.80
2008,08,05,10,39,661.40
2008,08,05,10,40,663.00
2008,08,05,10,41,663.60
2008,08,05,10,42,666.40
2008,08,05,10,43,668.60
2008,08,05,10,44,670.80
2008,08,05,10,45,670.60
2008,08,05,10,46,673.40
2008,08,05,10,47,675.80
2008,08,05,10,48,679.00
2008,08,05,10,49,679.20
2008,08,05,10,50,680.80
2008,08,05,10,51,684.00
2008,08,05,10,52,684.60
2008,08,05,10,53,687.40
2008,08,05,10,54,689.00
2008,08,05,10,55,689.40
2008,08,05,10,56,691.40
2008,08,05,10,57,693.20
2008,08,05,10,58,694.80
2008,08,05,10,59,698.00
2008,08,05,11,00,699.10
2008,08,05,11,01,703.00
2008,08,05,11,02,703.40
2008,08,05,11,03,705.40
2008,08,05,11,04,707.00
2008,08,05,11,05,707.20
2008,08,05,11,06,708.80
2008,08,05,11,07,712.60
2008,08,05,11,08,715.40
2008,08,05,11,09,717.00
2008,08,05,11,10,717.00
2008,08,05,11,11,718.10
2008,08,05,11,12,722.00
2008,08,05,11,13,722.00
2008,08,05,11,14,722.80
2008,08,05,11,15,726.00
2008,08,05,11,16,726.60
2008,08,05,11,17,729.40
2008,08,05,11,18,731.40
2008,08,05,11,19,733.00
2008,08,05,11,20,733.80
2008,08,05,11,21,737.20
2008,08,05,11,22,738.00
2008,08,05,11,23,738.00
2008,08,05,11,24,738.80
2008,08,05,11,25,742.40
2008,08,05,11,26,744.20
2008,08,05,11,27,745.40
2008,08,05,11,28,747.00
2008,08,05,11,29,747.80
2008,08,05,11,30,751.20
2008,08,05,11,31,752.40
2008,08,05,11,32,754.40
2008,08,05,11,33,755.60
2008,08,05,11,34,754.80
2008,08,05,11,35,758.60
2008,08,05,11,36,761.00
2008,08,05,11,37,760.70
2008,08,05,11,38,759.40
2008,08,05,11,39,761.80
2008,08,05,11,40,765.00
2008,08,05,11,41,765.60
2008,08,05,11,42,768.00
2008,08,05,11,43,768.40
2008,08,05,11,44,770.00
2008,08,05,11,45,770.40
2008,08,05,11,46,772.20
2008,08,05,11,47,773.00
2008,08,05,11,48,773.00
2008,08,05,11,49,773.40
2008,08,05,11,50,775.30
2008,08,05,11,51,777.40
2008,08,05,11,52,779.00
2008,08,05,11,53,779.00
2008,08,05,11,54,779.70
2008,08,05,11,55,782.00
2008,08,05,11,56,782.00
2008,08,05,11,57,782.40
2008,08,05,11,58,784.40
2008,08,05,11,59,786.00
2008,08,05,12,00,786.60
2008,08,05,12,01,788.80
2008,08,05,12,02,788.20
2008,08,05,12,03,789.40
2008,08,05,12,04,790.60
2008,08,05,12,05,789.40
2008,08,05,12,06,791.40
2008,08,05,12,07,793.00
2008,08,05,12,08,793.40
2008,08,05,12,09,795.20
2008,08,05,12,10,795.80
2008,08,05,12,11,795.20
2008,08,05,12,12,796.40
2008,08,05,12,13,798.40
2008,08,05,12,14,800.00
2008,08,05,12,15,800.40
2008,08,05,12,16,802.20
2008,08,05,12,17,803.40
2008,08,05,12,18,805.00
2008,08,05,12,19,805.00
2008,08,05,12,20,805.00
2008,08,05,12,21,805.40
2008,08,05,12,22,807.40
2008,08,05,12,23,809.00
2008,08,05,12,24,808.60
2008,08,05,12,25,807.80
2008,08,05,12,26,810.40
2008,08,05,12,27,812.00
2008,08,05,12,28,812.00
2008,08,05,12,29,812.40
2008,08,05,12,30,814.00
2008,08,05,12,31,814.00
2008,08,05,12,32,814.40
2008,08,05,12,33,816.00
2008,08,05,12,34,816.20
2008,08,05,12,35,817.00
2008,08,05,12,36,817.00
2008,08,05,12,37,817.40
2008,08,05,12,38,819.00
2008,08,05,12,39,819.40
2008,08,05,12,40,821.00
2008,08,05,12,41,821.00
2008,08,05,12,42,821.00
2008,08,05,12,43,821.40
2008,08,05,12,44,823.20
2008,08,05,12,45,823.40
2008,08,05,12,46,821.60
2008,08,05,12,47,823.80
2008,08,05,12,48,823.00
2008,08,05,12,49,823.20
2008,08,05,12,50,824.00
2008,08,05,12,51,824.00
2008,08,05,12,52,824.00
2008,08,05,12,53,824.70
2008,08,05,12,54,827.20
2008,08,05,12,55,825.10
2008,08,05,12,56,828.40
2008,08,05,12,57,829.60
2008,08,05,12,58,828.00
2008,08,05,12,59,828.00
2008,08,05,13,00,828.40
2008,08,05,13,01,829.60
2008,08,05,13,02,828.40
2008,08,05,13,03,830.00
2008,08,05,13,04,830.00
2008,08,05,13,05,830.00
2008,08,05,13,06,830.00
2008,08,05,13,07,830.20
2008,08,05,13,08,830.80
2008,08,05,13,09,830.00
2008,08,05,13,10,830.00
2008,08,05,13,11,830.20
2008,08,05,13,12,831.00
2008,08,05,13,13,831.00
2008,08,05,13,14,831.40
2008,08,05,13,15,832.60
2008,08,05,13,16,830.80
2008,08,05,13,17,830.70
2008,08,05,13,18,833.00
2008,08,05,13,19,833.00
2008,08,05,13,20,832.60
2008,08,05,13,21,831.00
2008,08,05,13,22,831.00
2008,08,05,13,23,831.00
2008,08,05,13,24,831.00
2008,08,05,13,25,831.00
2008,08,05,13,26,831.40
2008,08,05,13,27,833.00
2008,08,05,13,28,833.40
2008,08,05,13,29,834.20
2008,08,05,13,30,831.00
2008,08,05,13,31,831.40
2008,08,05,13,32,833.40
2008,08,05,13,33,834.60
2008,08,05,13,34,832.60
2008,08,05,13,35,831.00
2008,08,05,13,36,831.00
2008,08,05,13,37,831.00
2008,08,05,13,38,831.00
2008,08,05,13,39,831.00
2008,08,05,13,40,831.00
2008,08,05,13,41,830.80
2008,08,05,13,42,830.20
2008,08,05,13,43,831.00
2008,08,05,13,44,831.00
2008,08,05,13,45,830.80
2008,08,05,13,46,830.00
2008,08,05,13,47,830.20
2008,08,05,13,48,830.80
2008,08,05,13,49,830.00
2008,08,05,13,50,829.60
2008,08,05,13,51,828.00
2008,08,05,13,52,828.00
2008,08,05,13,53,828.40
2008,08,05,13,54,829.60
2008,08,05,13,55,827.60
2008,08,05,13,56,826.00
2008,08,05,13,57,826.00
2008,08,05,13,58,826.40
2008,08,05,13,59,827.60
2008,08,05,14,00,825.60
2008,08,05,14,01,824.00
2008,08,05,14,02,823.80
2008,08,05,14,03,822.60
2008,08,05,14,04,821.40
2008,08,05,14,05,822.60
2008,08,05,14,06,821.00
2008,08,05,14,07,821.40
2008,08,05,14,08,823.00
2008,08,05,14,09,822.60
2008,08,05,14,10,820.60
2008,08,05,14,11,819.40
2008,08,05,14,12,820.60
2008,08,05,14,13,818.60
2008,08,05,14,14,817.00
2008,08,05,14,15,817.00
2008,08,05,14,16,817.00
2008,08,05,14,17,816.80
2008,08,05,14,18,815.60
2008,08,05,14,19,814.40
2008,08,05,14,20,815.60
2008,08,05,14,21,814.00
2008,08,05,14,22,814.00
2008,08,05,14,23,813.60
2008,08,05,14,24,812.00
2008,08,05,14,25,812.00
2008,08,05,14,26,811.60
2008,08,05,14,27,809.80
2008,08,05,14,28,809.20
2008,08,05,14,29,809.80
2008,08,05,14,30,808.20
2008,08,05,14,31,805.00
2008,08,05,14,32,804.60
2008,08,05,14,33,803.00
2008,08,05,14,34,803.00
2008,08,05,14,35,803.00
2008,08,05,14,36,802.80
2008,08,05,14,37,801.60
2008,08,05,14,38,800.00
2008,08,05,14,39,799.60
2008,08,05,14,40,798.00
2008,08,05,14,41,797.60
2008,08,05,14,42,795.80
2008,08,05,14,43,795.00
2008,08,05,14,44,794.60
2008,08,05,14,45,793.00
2008,08,05,14,46,793.40
2008,08,05,14,47,795.00
2008,08,05,14,48,793.40
2008,08,05,14,49,788.60
2008,08,05,14,50,790.40
2008,08,05,14,51,787.60
2008,08,05,14,52,786.00
2008,08,05,14,53,785.60
2008,08,05,14,54,783.60
2008,08,05,14,55,781.60
2008,08,05,14,56,780.40
2008,08,05,14,57,781.40
2008,08,05,14,58,779.00
2008,08,05,14,59,779.00
2008,08,05,15,00,778.20
2008,08,05,15,01,775.00
2008,08,05,15,02,774.60
2008,08,05,15,03,773.00
2008,08,05,15,04,772.30
2008,08,05,15,05,770.00
2008,08,05,15,06,770.00
2008,08,05,15,07,769.60
2008,08,05,15,08,768.00
2008,08,05,15,09,767.40
2008,08,05,15,10,765.00
2008,08,05,15,11,764.20
2008,08,05,15,12,761.00
2008,08,05,15,13,761.00
2008,08,05,15,14,761.00
2008,08,05,15,15,760.60
2008,08,05,15,16,758.40
2008,08,05,15,17,756.00
2008,08,05,15,18,755.60
2008,08,05,15,19,753.60
2008,08,05,15,20,751.80
2008,08,05,15,21,750.60
2008,08,05,15,22,748.60
2008,08,05,15,23,747.00
2008,08,05,15,24,746.40
2008,08,05,15,25,743.60
2008,08,05,15,26,740.40
2008,08,05,15,27,733.80
2008,08,05,15,28,728.40
2008,08,05,15,29,725.60
2008,08,05,15,30,723.60
2008,08,05,15,31,721.80
2008,08,05,15,32,720.60
2008,08,05,15,33,718.60
2008,08,05,15,34,717.00
2008,08,05,15,35,716.40
2008,08,05,15,36,713.20
2008,08,05,15,37,709.60
2008,08,05,15,38,708.00
2008,08,05,15,39,706.40
2008,08,05,15,40,701.40
2008,08,05,15,41,702.60
2008,08,05,15,42,700.80
2008,08,05,15,43,699.10
2008,08,05,15,44,696.40
2008,08,05,15,45,698.00
2008,08,05,15,46,697.60
2008,08,05,15,47,695.60
2008,08,05,15,48,693.00
2008,08,05,15,49,687.90
2008,08,05,15,50,683.60
2008,08,05,15,51,682.00
2008,08,05,15,52,681.60
2008,08,05,15,53,680.00
2008,08,05,15,54,679.30
2008,08,05,15,55,676.60
2008,08,05,15,56,674.00
2008,08,05,15,57,669.60
2008,08,05,15,58,668.00
2008,08,05,15,59,667.60
2008,08,05,16,00,665.30
2008,08,05,16,01,662.60
2008,08,05,16,02,660.60
2008,08,05,16,03,658.60
2008,08,05,16,04,657.00
2008,08,05,16,05,657.00
2008,08,05,16,06,654.90
2008,08,05,16,07,646.60
2008,08,05,16,08,645.00
2008,08,05,16,09,644.60
2008,08,05,16,10,642.40
2008,08,05,16,11,639.60
2008,08,05,16,12,638.00
2008,08,05,16,13,637.60
2008,08,05,16,14,636.00
2008,08,05,16,15,635.80
2008,08,05,16,16,633.60
2008,08,05,16,17,626.70
2008,08,05,16,18,622.00
2008,08,05,16,19,621.80
2008,08,05,16,20,619.80
2008,08,05,16,21,614.60
2008,08,05,16,22,612.40
2008,08,05,16,23,609.60
2008,08,05,16,24,607.20
2008,08,05,16,25,603.70
2008,08,05,16,26,599.00
2008,08,05,16,27,598.70
2008,08,05,16,28,598.00
2008,08,05,16,29,598.00
2008,08,05,16,30,597.60
2008,08,05,16,31,595.60
2008,08,05,16,32,593.60
2008,08,05,16,33,591.80
2008,08,05,16,34,590.10
2008,08,05,16,35,587.40
2008,08,05,16,36,588.10
2008,08,05,16,37,584.40
2008,08,05,16,38,581.50
2008,08,05,16,39,580.00
2008,08,05,16,40,579.40
2008,08,05,16,41,577.00
2008,08,05,16,42,576.60
2008,08,05,16,43,573.90
2008,08,05,16,44,570.40
2008,08,05,16,45,567.60
2008,08,05,16,46,565.60
2008,08,05,16,47,563.80
2008,08,05,16,48,562.60
2008,08,05,16,49,560.60
2008,08,05,16,50,557.70
2008,08,05,16,51,552.40
2008,08,05,16,52,547.80
2008,08,05,16,53,546.00
2008,08,05,16,54,543.00
2008,08,05,16,55,542.30
2008,08,05,16,56,538.80
2008,08,05,16,57,533.20
2008,08,05,16,58,530.60
2008,08,05,16,59,528.40
2008,08,05,17,00,525.60
2008,08,05,17,01,523.60
2008,08,05,17,02,521.60
2008,08,05,17,03,519.40
2008,08,05,17,04,516.60
2008,08,05,17,05,514.60
2008,08,05,17,06,511.90
2008,08,05,17,07,507.20
2008,08,05,17,08,503.00